Terminal Aerodrome Forecast
Issued by NWS Charleston, WV

Current Version | Previous Version | Graphics & Text | Print | Product List | Glossary On
Versions: 1 2 3 4 5 6 7 8 9 10 11 12 13 14 15 16 17 18 19 20 21 22 23
000
FTUS41 KRLX 221700
TAFHTS
TAF
KHTS 221723Z 2218/2318 30004KT P6SM BKN025
     FM230000 VRB03KT P6SM SCT040
     FM231000 00000KT P6SM SCT130
     FM231700 05004KT P6SM BKN120=

USA.gov is the U.S. government's official web portal to all federal, state and local government web resources and services.